Torna al catalogo

HULIANWANG DIGUI-36

AttivoComunicazioniPO
NORAD 64957·PAYLOAD·🇨🇳 China

Lanciato Jul 27, 2025 da Taiyuan Satellite Launch Center

Loading…

Prossimi Passaggi (prossime 24 ore)

TLE

AggiornatoSource: Space-Track

Epoca: Sep 14, 2026, 22:09 UTC

1 64957U 25159B   26257.92338371 -.00000073  00000-0 -20444-3 0  9990
2 64957  86.4914 252.1771 0002236  89.9444 270.1946 13.24403427 55000

Traccia HULIANWANG DIGUI-36 in tempo reale con AllMySat

Download on the App Store